格洛纳斯M-722 COSMOS 2435 [GLONASS-M]

导读

COSMOS 2435是独联体(CIS)发射的格洛纳斯(GLONASS)全球导航卫星,于2007年12月25日发射入轨,隶属于俄罗斯GLONASS导航系统。该系统作为全球领先的卫星导航网络,采用中高轨道设计,轨道高度约19100公里,运行周期11小时15分钟,轨道倾角64.8°,通过频分多址技术区分卫星信号,可为民用和军用用户提供高精度的全球定位服务,弥补系统星座组网,提升服务覆盖与定位可靠性。

基本信息
目录编号:
32394
目录名称:
COSMOS 2435 (GLONASS)
国际标识:
2007-065B
轨道中心:
EARTH
卫星名称:
格洛纳斯M-722
卫星全名:
格洛纳斯M-722 COSMOS 2435 [GLONASS-M]
卫星状态:
在轨 (已飞行6748 天)
发射日期:
2007-12-25 UTC
国别 :
俄罗斯(独联体) (CIS)
星等 :
--
轨道信息
数据来源 国际轨道数据 AOE轨道数据
星历时间 2026-06-13T10:35:14+0800
3天前
查看轨道信息
2026-06-14T09:00:00+0800
2天前
查看轨道信息
半长轴 25506.964km 25506.964km
偏心率 0.0025234 0.0025257
轨道倾角 64.322° 64.321°
近地点辐角 357.332° 357.050°
升交点赤经 192.048° 192.017°
平近点角 2.731° 359.493°
近地点 19064.462km 19064.404km
远地点 19193.192km 19193.25km
周期 675.691分钟 675.691分钟
每日圈数 2.131153 2.131153
详细信息
平衡模式:
三轴稳定
覆盖范围:
全球
运营商:
列舍特涅夫卫星信息系统
运营商所在国:
俄罗斯
制造商(研发单位):
列舍特涅夫卫星信息系统
制造商所在国:
俄罗斯
使用方式:
暂无
卫星简介
格洛纳斯(GLONASS )是苏联/俄罗斯研制卫星导航系统。标准配置为24颗卫星,其中18颗卫星就能保证该系统为俄罗斯境内用户提供全部服务。该卫星已退役。
2D轨道图
3D轨道图
轨道高度分析图
轨道倾角分析图
轨道综合分析图
查看轨道综合分析图